DW8816 Weather Reports


time (UTC)temp
C
wind
direction
speed
KPH
gust
KPH
rain 1hr
cm
rain 24hr
cm
rain mn
cm
humidity
%
barometer
mb
20260509233003 11 38 6.4 20.9 0.00 0.00 0.00 68 1017.4
20260509232003 11 34 4.8 17.7 0.00 0.00 0.00 66 1017.4
20260509231002 11 30 4.8 16.1 0.00 0.00 0.00 67 1017.4
20260509230003 12 36 4.8 12.9 0.00 0.00 0.00 66 1017.4
20260509225002 12 54 3.2 17.7 0.00 0.00 0.00 66 1017.3
20260509224003 12 39 1.6 8.0 0.00 0.00 0.00 65 1017.4
20260509223003 12 57 3.2 11.3 0.00 0.00 0.00 64 1017.2
20260509222002 12 43 1.6 9.7 0.00 0.00 0.00 63 1017.2
20260509221003 12 50 0.0 6.4 0.00 0.00 0.00 62 1017.4
20260509220004 13 57 0.0 4.8 0.00 0.00 0.00 61 1017.4
20260509215003 13 60 1.6 8.0 0.00 0.00 0.00 60 1017.2
20260509213003 13 27 1.6 4.8 0.00 0.00 0.00 58 1017.0
20260509212002 13 27 1.6 4.8 0.00 0.00 0.00 57 1016.8
20260509211003 13 0 0.0 6.4 0.00 0.00 0.00 56 1016.8
20260509210003 14 107 0.0 3.2 0.00 0.00 0.00 55 1016.9
20260509205003 14 108 1.6 6.4 0.00 0.00 0.00 55 1016.8
20260509204003 14 115 1.6 4.8 0.00 0.00 0.00 54 1016.8
20260509203003 14 94 1.6 6.4 0.00 0.00 0.00 54 1016.6
20260509202002 15 79 1.6 8.0 0.00 0.00 0.00 53 1016.6
20260509201003 15 90 3.2 6.4 0.00 0.00 0.00 52 1016.4
20260509200003 15 93 3.2 9.7 0.00 0.00 0.00 52 1016.3
20260509195004 15 81 3.2 9.7 0.00 0.00 0.00 51 1016.3
20260509194003 15 80 3.2 11.3 0.00 0.00 0.00 51 1016.1
20260509193003 16 82 3.2 12.9 0.00 0.00 0.00 50 1016.0
20260509192003 16 102 4.8 11.3 0.00 0.00 0.00 50 1015.9
20260509191003 16 104 6.4 17.7 0.00 0.00 0.00 50 1015.9
20260509190003 16 107 4.8 14.5 0.00 0.00 0.00 51 1015.9
20260509185004 17 108 6.4 12.9 0.00 0.00 0.00 51 1015.7
20260509184003 17 96 6.4 17.7 0.00 0.00 0.00 51 1015.6
20260509183003 17 106 6.4 16.1 0.00 0.00 0.00 52 1015.6
20260509182003 17 101 8.0 17.7 0.00 0.00 0.00 52 1015.5
20260509181004 17 112 9.7 19.3 0.00 0.00 0.00 52 1015.3
20260509180004 18 107 9.7 19.3 0.00 0.00 0.00 52 1015.4
20260509174003 18 108 8.0 19.3 0.00 0.00 0.00 51 1015.1
20260509172003 19 106 6.4 14.5 0.00 0.00 0.00 48 1015.0
20260509171004 20 102 6.4 16.1 0.00 0.00 0.00 46 1015.2
20260509170003 20 84 6.4 12.9 0.00 0.00 0.00 46 1015.2
20260509165003 20 78 6.4 16.1 0.00 0.00 0.00 46 1015.2
20260509164003 20 67 6.4 17.7 0.00 0.00 0.00 45 1015.1
20260509163002 20 72 8.0 17.7 0.00 0.00 0.00 45 1015.1
20260509162004 20 69 4.8 14.5 0.00 0.00 0.00 45 1015.2
20260509161004 19 77 6.4 14.5 0.00 0.00 0.00 46 1015.2
20260509160003 19 88 8.0 17.7 0.00 0.00 0.00 47 1015.3
20260509155002 20 84 4.8 19.3 0.00 0.00 0.00 45 1015.4
20260509154003 20 79 4.8 11.3 0.00 0.00 0.00 46 1015.4
20260509153004 20 72 8.0 14.5 0.00 0.00 0.00 44 1015.6
20260509152003 20 80 6.4 16.1 0.00 0.00 0.00 44 1015.6
20260509151003 20 90 6.4 16.1 0.00 0.00 0.00 44 1015.4
20260509150003 20 83 4.8 14.5 0.00 0.00 0.00 46 1015.4
20260509144003 20 76 6.4 16.1 0.00 0.00 0.00 45 1015.4
20260509143003 20 63 4.8 14.5 0.00 0.00 0.00 45 1015.2
20260509142003 20 66 8.0 14.5 0.00 0.00 0.00 44 1015.2
20260509141003 20 104 6.4 20.9 0.00 0.00 0.00 44 1015.3
20260509140004 20 90 6.4 14.5 0.00 0.00 0.00 44 1015.3
20260509135003 20 107 6.4 20.9 0.00 0.00 0.00 42 1015.4
20260509134003 20 106 6.4 16.1 0.00 0.00 0.00 45 1015.5
20260509133004 20 36 8.0 14.5 0.00 0.00 0.00 46 1015.5
20260509132002 20 78 6.4 17.7 0.00 0.00 0.00 46 1015.6
20260509131003 20 106 6.4 20.9 0.00 0.00 0.00 48 1015.7
20260509125003 19 90 6.4 16.1 0.00 0.00 0.00 49 1015.9
20260509124003 18 90 8.0 14.5 0.00 0.00 0.00 47 1016.1
20260509123003 18 90 9.7 17.7 0.00 0.00 0.00 49 1016.2
20260509122003 18 103 8.0 22.5 0.00 0.00 0.00 50 1016.3
20260509121003 19 72 6.4 19.3 0.00 0.00 0.00 51 1016.3
20260509120004 18 129 6.4 17.7 0.00 0.00 0.00 53 1016.4
20260509115003 18 117 6.4 19.3 0.00 0.00 0.00 51 1016.5
20260509114003 18 99 8.0 14.5 0.00 0.00 0.00 53 1016.6
20260509113003 18 107 8.0 16.1 0.00 0.00 0.00 54 1016.7
20260509112003 18 108 6.4 16.1 0.00 0.00 0.00 52 1016.8
20260509111003 18 84 8.0 17.7 0.00 0.00 0.00 54 1016.8
20260509110003 18 97 8.0 19.3 0.00 0.00 0.00 55 1017.0
20260509105003 18 102 6.4 17.7 0.00 0.00 0.00 55 1017.0
20260509104003 18 86 8.0 14.5 0.00 0.00 0.00 56 1017.2
20260509103003 18 80 4.8 16.1 0.00 0.00 0.00 56 1017.3
20260509102003 18 95 6.4 12.9 0.00 0.00 0.00 57 1017.4
20260509101004 17 78 8.0 17.7 0.00 0.00 0.00 56 1017.3
20260509100002 17 88 4.8 17.7 0.00 0.00 0.00 58 1017.3
20260509095003 17 99 6.4 17.7 0.00 0.00 0.00 59 1017.4
20260509093003 17 125 4.8 14.5 0.00 0.00 0.00 61 1017.5
20260509092004 16 118 8.0 17.7 0.00 0.00 0.00 63 1017.5
20260509091004 16 109 8.0 17.7 0.00 0.00 0.00 62 1017.6
20260509090004 16 90 8.0 17.7 0.00 0.00 0.00 65 1017.6
20260509083004 15 104 4.8 16.1 0.00 0.00 0.00 66 1017.7
20260509082003 15 81 4.8 12.9 0.00 0.00 0.00 69 1017.7
20260509075003 13 45 6.4 11.3 0.00 0.00 0.00 76 1017.7
20260509073003 12 52 4.8 12.9 0.00 0.00 0.00 80 1017.6
20260509072003 12 48 4.8 12.9 0.00 0.00 0.00 83 1017.6
20260509070003 11 33 4.8 9.7 0.00 0.00 0.00 85 1017.5
20260509065003 11 355 1.6 8.0 0.00 0.00 0.00 86 1017.5
20260509064004 10 355 1.6 4.8 0.00 0.00 0.00 87 1017.6
20260509063003 10 10 3.2 8.0 0.00 0.00 0.00 88 1017.6
20260509062003 10 18 3.2 6.4 0.00 0.00 0.00 89 1017.5
20260509061003 9 24 1.6 6.4 0.00 0.00 0.00 90 1017.5
20260509060004 8 26 1.6 4.8 0.00 0.00 0.00 91 1017.5
20260509055004 8 26 3.2 4.8 0.00 0.00 0.00 91 1017.6
20260509054003 8 24 3.2 6.4 0.00 0.00 0.00 91 1017.4
20260509053003 8 28 3.2 9.7 0.00 0.00 0.00 92 1017.4
20260509052004 7 24 3.2 6.4 0.00 0.00 0.00 92 1017.3
20260509051004 7 23 1.6 8.0 0.00 0.00 0.00 93 1017.3
20260509050005 7 19 1.6 6.4 0.00 0.00 0.00 92 1017.2
20260509045003 7 18 1.6 4.8 0.00 0.00 0.00 93 1017.3
20260509044004 7 16 1.6 6.4 0.00 0.00 0.00 92 1017.3
20260509043003 7 15 3.2 6.4 0.00 0.00 0.00 92 1017.3
20260509042003 7 14 3.2 8.0 0.00 0.00 0.00 92 1017.3
20260509041002 7 24 3.2 8.0 0.00 0.00 0.00 92 1017.3
20260509040003 7 31 3.2 6.4 0.00 0.00 0.00 91 1017.4
20260509035004 7 34 4.8 8.0 0.00 0.00 0.00 92 1017.3
20260509034004 7 38 3.2 9.7 0.00 0.00 0.00 91 1017.3
20260509033003 7 28 1.6 8.0 0.00 0.00 0.00 91 1017.3
20260509032003 7 30 1.6 6.4 0.00 0.00 0.00 91 1017.4
20260509031003 7 41 1.6 4.8 0.00 0.00 0.00 91 1017.4
20260509025003 7 44 0.0 4.8 0.00 0.00 0.00 90 1017.4
20260509024003 7 0 0.0 3.2 0.00 0.00 0.00 90 1017.4
20260509023003 7 44 1.6 3.2 0.00 0.00 0.00 90 1017.5
20260509022003 7 44 1.6 4.8 0.00 0.00 0.00 90 1017.4
20260509014003 8 99 1.6 4.8 0.00 0.00 0.00 88 1017.6
20260509012003 8 99 0.0 3.2 0.00 0.00 0.00 87 1017.7
20260509011003 8 99 0.0 3.2 0.00 0.00 0.00 87 1017.6
20260509010003 8 0 0.0 0.0 0.00 0.00 0.00 86 1017.6
20260509005003 8 0 0.0 3.2 0.00 0.00 0.00 86 1017.6
20260509004003 8 0 0.0 1.6 0.00 0.00 0.00 85 1017.6
20260509003003 9 0 0.0 3.2 0.00 0.00 0.00 84 1017.5
20260509002004 10 0 0.0 4.8 0.00 0.00 0.00 83 1017.6
20260509001003 10 0 0.0 3.2 0.00 0.00 0.00 83 1017.5
20260509000005 10 0 0.0 3.2 0.00 0.00 0.00 82 1017.6
20260508235005 10 0 0.0 0.0 0.00 0.00 0.00 80 1017.7
20260508234003 11 0 0.0 4.8 0.00 0.00 0.00 80 1017.7